sat.trackr.live / text

‹ back to catalog

STARLINK-35975

NORAD 66525 · 2025-265K

PAYLOAD ACTIVE UNKNOWN

§ Identity

Operator
Country
US
Launch date
2025-11-19
Launch site
AFETR
Launch vehicle
Mass (kg)
RCS (m²)

Purposes: comms

External: N2YO · Heavens-Above · Gunter

§ Orbital elements

Epoch: 2026-09-20T08:14:10.970592Z

Period
94.27 min
Inclination
42.9995°
Eccentricity
0.0001354
Mean motion
15.27589253 rev/d
Perigee alt
482.1 km
Apogee alt
484.0 km
Semi-major
6,861.2 km
B*
3.5890e-4
RAAN
258.5975°
Arg perigee
273.5423°
Mean anomaly
86.5274°
Rev number
4,688

§ Raw data

STARLINK-359751 66525U 25265K   26263.34318253  .00009630  00000+0  35890-3 0  99972 66525  42.9995 258.5975 0001354 273.5423  86.5274 15.27589253 46889

JSON: /api/v1/satellites/66525 · /tle

For live sub-satellite position, see the globe view (requires WebGL).

§ Visibility from observer

Set your observer location to see the next 7 days of passes ≥ 10°. The values pass through the URL so the page stays shareable.

No JS? Fill the form by hand. The geolocation button needs JavaScript.